CBJ8185 ZBTJ-ZSHC

Flight info

Callsign CBJ8185
Flight time N/A
Altitude 35100
Route ELKUR8W ELKUR W40 YQG/K0856S1100 W142 DALIM/K0854S1070 A593 DPX A470 OF W95 SAPIN A470 IGRAT IGR91A
Aircraft A320/M-SDE3FGHIRWY/LB1

Departure

Time 2026-04-29 10:58
Airport Tianjin Binhai International Airport (ZBTJ)

Arrival

Time N/A
Airport Hangzhou Xiaoshan International Airport (ZSHC)
Time Latitude Longitude Altitude Speed Heading
2026-04-29 10:48 39.12726 117.35036 17 ft 0 kts
2026-04-29 10:50 39.12730 117.35036 17 ft 1 kts
2026-04-29 10:50 39.12751 117.35038 17 ft 4 kts
2026-04-29 10:50 39.12793 117.35010 17 ft 9 kts 304°
2026-04-29 10:51 39.12827 117.34914 18 ft 10 kts 293°
2026-04-29 10:51 39.12886 117.34849 18 ft 12 kts 334°
2026-04-29 10:51 39.12971 117.34797 19 ft 14 kts 334°
2026-04-29 10:51 39.13070 117.34737 19 ft 16 kts 334°
2026-04-29 10:52 39.13179 117.34669 19 ft 18 kts 334°
2026-04-29 10:52 39.13261 117.34619 19 ft 19 kts 334°
2026-04-29 10:52 39.13311 117.34586 19 ft 8 kts 317°
2026-04-29 10:52 39.13317 117.34505 19 ft 11 kts 246°
2026-04-29 10:53 39.13283 117.34412 20 ft 10 kts 246°
2026-04-29 10:53 39.13316 117.34333 20 ft 12 kts 332°
2026-04-29 10:53 39.13400 117.34280 21 ft 14 kts 334°
2026-04-29 10:53 39.13493 117.34222 22 ft 15 kts 333°
2026-04-29 10:54 39.13597 117.34160 22 ft 17 kts 334°
2026-04-29 10:54 39.13713 117.34089 21 ft 19 kts 334°
2026-04-29 10:54 39.13806 117.34031 19 ft 14 kts 334°
2026-04-29 10:54 39.13903 117.33971 19 ft 16 kts 334°
2026-04-29 10:55 39.14012 117.33905 20 ft 17 kts 334°
2026-04-29 10:55 39.14103 117.33843 22 ft 12 kts 309°
2026-04-29 10:55 39.14100 117.33757 21 ft 0 kts 245°
2026-04-29 10:56 39.14100 117.33756 21 ft 0 kts 245°
2026-04-29 10:56 39.14084 117.33714 20 ft 9 kts 244°
2026-04-29 10:56 39.14043 117.33649 20 ft 9 kts 198°
2026-04-29 10:56 39.13999 117.33657 20 ft 0 kts 155°
2026-04-29 10:57 39.13984 117.33665 19 ft 15 kts 155°
2026-04-29 10:57 39.13644 117.33871 22 ft 90 kts 154°
2026-04-29 10:57 39.12883 117.34338 16 ft 150 kts 155°
2026-04-29 10:57 39.11853 117.34979 314 ft 171 kts 155°
2026-04-29 10:58 39.10754 117.35648 896 ft 177 kts 156°
2026-04-29 10:58 39.09697 117.36294 1738 ft 167 kts 157°
2026-04-29 10:58 39.08609 117.36955 2210 ft 181 kts 156°
2026-04-29 10:58 39.07426 117.37670 2637 ft 197 kts 156°
2026-04-29 10:59 39.06144 117.38450 3085 ft 214 kts 155°
2026-04-29 10:59 39.04736 117.39309 3573 ft 232 kts 155°
2026-04-29 10:59 39.03223 117.40234 4116 ft 248 kts 154°
2026-04-29 10:59 39.01654 117.41193 4844 ft 254 kts 154°
2026-04-29 11:00 39.00063 117.42165 5650 ft 258 kts 154°
2026-04-29 11:00 38.98438 117.43186 6440 ft 261 kts 148°
2026-04-29 11:00 38.97172 117.44778 7160 ft 261 kts 114°
2026-04-29 11:00 38.96785 117.47002 8001 ft 256 kts 84°
2026-04-29 11:01 38.97060 117.49215 8805 ft 255 kts 77°
2026-04-29 11:01 38.97390 117.51458 9585 ft 258 kts 78°
2026-04-29 11:01 38.97697 117.53717 10381 ft 259 kts 78°
2026-04-29 11:01 38.97991 117.55997 11142 ft 261 kts 79°
2026-04-29 11:02 38.98274 117.58277 11900 ft 263 kts 78°
2026-04-29 11:02 38.98557 117.60596 12675 ft 264 kts 78°
2026-04-29 11:02 38.98839 117.62917 13412 ft 265 kts 78°
2026-04-29 11:02 38.99116 117.65251 14119 ft 267 kts 82°
2026-04-29 11:03 38.98944 117.67625 14788 ft 276 kts 108°
2026-04-29 11:03 38.97908 117.69724 15469 ft 286 kts 133°
2026-04-29 11:03 38.96225 117.71066 16092 ft 297 kts 159°
2026-04-29 11:03 38.94155 117.71524 16803 ft 302 kts 169°
2026-04-29 11:04 38.92086 117.71830 17443 ft 304 kts 170°
2026-04-29 11:04 38.89969 117.71719 17991 ft 316 kts 194°
2026-04-29 11:04 38.87998 117.70351 18587 ft 324 kts 222°
2026-04-29 11:04 38.86676 117.67992 18958 ft 336 kts 250°
2026-04-29 11:05 38.86189 117.65009 19243 ft 346 kts 265°
2026-04-29 11:05 38.85928 117.61920 19506 ft 360 kts 268°
2026-04-29 11:05 38.85972 117.58666 19764 ft 371 kts 280°
2026-04-29 11:05 38.86579 117.55401 20012 ft 380 kts 292°
2026-04-29 11:06 38.87502 117.52187 20224 ft 392 kts 294°
2026-04-29 11:06 38.88496 117.48888 20465 ft 404 kts 294°
2026-04-29 11:06 38.89502 117.45481 20693 ft 417 kts 294°
2026-04-29 11:06 38.90516 117.41965 20977 ft 426 kts 293°
2026-04-29 11:07 38.91478 117.38336 21446 ft 433 kts 286°
2026-04-29 11:07 38.91685 117.34458 21897 ft 441 kts 264°
2026-04-29 11:07 38.90857 117.30682 22407 ft 445 kts 245°
2026-04-29 11:07 38.89428 117.27192 22937 ft 447 kts 240°
2026-04-29 11:08 38.87911 117.23693 23369 ft 452 kts 240°
2026-04-29 11:08 38.86400 117.20132 23800 ft 456 kts 241°
2026-04-29 11:08 38.84898 117.16524 24223 ft 459 kts 242°
2026-04-29 11:08 38.83416 117.12927 24664 ft 462 kts 242°
2026-04-29 11:09 38.81913 117.09272 25113 ft 464 kts 242°
2026-04-29 11:09 38.80403 117.05599 25525 ft 467 kts 242°
2026-04-29 11:09 38.78883 117.01902 25938 ft 469 kts 242°
2026-04-29 11:09 38.77368 116.98229 26320 ft 471 kts 242°
2026-04-29 11:10 38.75839 116.94524 26708 ft 473 kts 242°
2026-04-29 11:10 38.74283 116.90785 27089 ft 475 kts 241°
2026-04-29 11:10 38.72726 116.87102 27496 ft 475 kts 240°
2026-04-29 11:10 38.71145 116.83382 28000 ft 473 kts 240°
2026-04-29 11:11 38.69576 116.79694 28473 ft 472 kts 240°
2026-04-29 11:11 38.68008 116.76011 28899 ft 471 kts 240°
2026-04-29 11:11 38.66333 116.72454 29262 ft 468 kts 231°
2026-04-29 11:11 38.64103 116.69462 29650 ft 463 kts 217°
2026-04-29 11:12 38.61410 116.67244 30005 ft 457 kts 202°
2026-04-29 11:12 38.58429 116.65891 30306 ft 452 kts 189°
2026-04-29 11:12 38.55328 116.65353 30519 ft 450 kts 182°
2026-04-29 11:12 38.52229 116.65048 30756 ft 449 kts 182°
2026-04-29 11:13 38.49098 116.64753 31009 ft 448 kts 183°
2026-04-29 11:13 38.46000 116.64436 31359 ft 445 kts 184°
2026-04-29 11:13 38.42930 116.64098 31566 ft 444 kts 185°
2026-04-29 11:13 38.39823 116.63744 31771 ft 444 kts 185°
2026-04-29 11:14 38.36771 116.63450 31942 ft 445 kts 183°
2026-04-29 11:14 38.33653 116.63369 32112 ft 446 kts 180°
2026-04-29 11:14 38.30557 116.63527 32246 ft 448 kts 177°
2026-04-29 11:14 38.27488 116.63921 32481 ft 446 kts 174°
2026-04-29 11:15 38.24429 116.64559 32890 ft 441 kts 171°
2026-04-29 11:15 38.21433 116.65407 33131 ft 441 kts 169°
2026-04-29 11:15 38.18478 116.66460 33290 ft 442 kts 167°
2026-04-29 11:15 38.15507 116.67563 33476 ft 441 kts 168°
2026-04-29 11:16 38.12592 116.68641 33646 ft 442 kts 168°
2026-04-29 11:16 38.09611 116.69748 33782 ft 443 kts 168°
2026-04-29 11:16 38.06676 116.70863 33924 ft 444 kts 168°
2026-04-29 11:16 38.03737 116.71985 34076 ft 444 kts 168°
2026-04-29 11:17 38.00779 116.73115 34234 ft 444 kts 168°
2026-04-29 11:17 37.97808 116.74247 34372 ft 444 kts 168°
2026-04-29 11:17 37.94863 116.75368 34492 ft 445 kts 168°
2026-04-29 11:17 37.91877 116.76503 34607 ft 446 kts 168°
2026-04-29 11:18 37.88890 116.77638 34727 ft 446 kts 168°
2026-04-29 11:18 37.85926 116.78764 34866 ft 447 kts 168°
2026-04-29 11:18 37.82946 116.79891 34997 ft 447 kts 168°
2026-04-29 11:18 37.79938 116.81031 35119 ft 447 kts 168°
2026-04-29 11:19 37.76976 116.82151 35180 ft 448 kts 168°
2026-04-29 11:19 37.70991 116.84412 35191 ft 448 kts 168°
2026-04-29 11:20 37.64942 116.86698 35179 ft 447 kts 169°
2026-04-29 11:20 37.58907 116.88969 35187 ft 447 kts 169°
2026-04-29 11:21 37.52850 116.91248 35175 ft 446 kts 169°
2026-04-29 11:21 37.46812 116.93516 35181 ft 447 kts 169°
2026-04-29 11:22 37.40754 116.95788 35183 ft 447 kts 169°
2026-04-29 11:22 37.34674 116.98064 35181 ft 446 kts 169°
2026-04-29 11:23 37.28582 117.00447 35182 ft 448 kts 167°
2026-04-29 11:23 37.22757 117.03175 35185 ft 445 kts 166°
2026-04-29 11:24 37.16961 117.05882 35187 ft 444 kts 166°
2026-04-29 11:24 37.11115 117.08613 35193 ft 444 kts 166°
2026-04-29 11:25 37.05252 117.11348 35195 ft 444 kts 166°
2026-04-29 11:25 36.99478 117.14038 35190 ft 444 kts 166°
2026-04-29 11:26 36.90772 117.18026 35196 ft 441 kts 169°
2026-04-29 11:26 36.84845 117.20003 35199 ft 439 kts 175°
2026-04-29 11:27 36.78852 117.21157 35201 ft 432 kts 181°
2026-04-29 11:27 36.72860 117.21498 35203 ft 427 kts 187°
2026-04-29 11:28 36.66918 117.21462 35206 ft 427 kts 186°
2026-04-29 11:28 36.60995 117.21433 35211 ft 427 kts 186°
2026-04-29 11:29 36.55047 117.21398 35215 ft 427 kts 187°
2026-04-29 11:29 36.49086 117.21383 35220 ft 428 kts 185°
2026-04-29 11:30 36.43145 117.21901 35216 ft 433 kts 180°
2026-04-29 11:30 36.37193 117.23183 35210 ft 438 kts 174°
2026-04-29 11:31 36.31230 117.25230 35207 ft 440 kts 171°
2026-04-29 11:31 36.25368 117.27403 35217 ft 438 kts 171°
2026-04-29 11:32 36.19505 117.29576 35207 ft 438 kts 171°
2026-04-29 11:32 36.13654 117.31744 35206 ft 438 kts 171°
2026-04-29 11:33 36.07791 117.33913 35219 ft 437 kts 171°
2026-04-29 11:33 36.01958 117.36068 35216 ft 437 kts 171°
2026-04-29 11:34 35.96139 117.38228 35221 ft 437 kts 171°
2026-04-29 11:34 35.90284 117.40422 35214 ft 437 kts 171°
2026-04-29 11:35 35.84453 117.42602 35216 ft 437 kts 172°
2026-04-29 11:35 35.78577 117.44797 35220 ft 437 kts 171°
2026-04-29 11:36 35.72743 117.46973 35213 ft 437 kts 172°
2026-04-29 11:36 35.66923 117.49139 35460 ft 436 kts 172°
2026-04-29 11:37 35.64031 117.50215 35321 ft 435 kts 172°
2026-04-29 11:37 35.61113 117.51300 35268 ft 434 kts 172°
2026-04-29 11:37 35.55351 117.53439 35235 ft 433 kts 172°
2026-04-29 11:38 35.49588 117.55572 35226 ft 433 kts 172°
2026-04-29 11:38 35.43807 117.57711 35225 ft 433 kts 172°
2026-04-29 11:39 35.38055 117.59840 35224 ft 433 kts 172°
2026-04-29 11:39 35.32279 117.61969 35225 ft 432 kts 172°
2026-04-29 11:40 35.26551 117.64079 35228 ft 431 kts 172°
2026-04-29 11:40 35.20771 117.66207 35228 ft 431 kts 173°
2026-04-29 11:41 35.15025 117.68319 35231 ft 430 kts 173°
2026-04-29 11:41 35.09295 117.70420 35232 ft 431 kts 173°
2026-04-29 11:42 35.03565 117.72519 35234 ft 430 kts 173°
2026-04-29 11:42 34.97822 117.74622 35233 ft 430 kts 173°
2026-04-29 11:43 34.92094 117.76720 35230 ft 430 kts 173°
2026-04-29 11:43 34.86363 117.78813 35234 ft 430 kts 173°
2026-04-29 11:44 34.80624 117.80913 35236 ft 429 kts 173°
2026-04-29 11:44 34.74905 117.82973 35236 ft 429 kts 173°
2026-04-29 11:45 34.69198 117.85024 35242 ft 428 kts 174°
2026-04-29 11:45 34.63452 117.87085 35243 ft 428 kts 173°
2026-04-29 11:46 34.57744 117.89133 35245 ft 428 kts 173°
2026-04-29 11:46 34.52056 117.91174 35245 ft 427 kts 174°
2026-04-29 11:47 34.46345 117.93218 35242 ft 427 kts 174°
2026-04-29 11:47 34.40660 117.95252 35243 ft 425 kts 174°
2026-04-29 11:48 34.34978 117.97278 35243 ft 425 kts 174°
2026-04-29 11:48 34.29329 117.99291 35245 ft 426 kts 174°
2026-04-29 11:49 34.23635 118.01346 35245 ft 424 kts 174°
2026-04-29 11:49 34.17989 118.03406 35248 ft 426 kts 174°
2026-04-29 11:50 34.12336 118.05467 35248 ft 425 kts 174°
2026-04-29 11:50 34.06668 118.07528 35250 ft 426 kts 174°
2026-04-29 11:51 34.00973 118.09592 35252 ft 426 kts 174°
2026-04-29 11:51 33.95330 118.11648 35253 ft 424 kts 174°
2026-04-29 11:52 33.89676 118.13708 35258 ft 424 kts 174°
2026-04-29 11:52 33.83994 118.15771 35259 ft 423 kts 174°
2026-04-29 11:53 33.78377 118.17812 35253 ft 424 kts 174°
2026-04-29 11:53 33.72733 118.19868 35253 ft 423 kts 174°
2026-04-29 11:54 33.67089 118.21919 35256 ft 423 kts 174°
2026-04-29 11:54 33.61472 118.23960 35259 ft 422 kts 174°
2026-04-29 11:55 33.55839 118.26004 35260 ft 423 kts 174°
2026-04-29 11:55 33.50219 118.28040 35257 ft 421 kts 174°
2026-04-29 11:56 33.44624 118.30068 35261 ft 421 kts 174°
2026-04-29 11:56 33.39035 118.32089 35260 ft 422 kts 174°
2026-04-29 11:57 33.33410 118.34119 35263 ft 420 kts 174°
2026-04-29 11:57 33.27822 118.36134 35267 ft 422 kts 175°
2026-04-29 11:58 33.22186 118.38164 35270 ft 421 kts 174°
2026-04-29 11:58 33.16565 118.40185 35270 ft 421 kts 174°
2026-04-29 11:59 33.10980 118.42196 35276 ft 422 kts 175°
2026-04-29 11:59 33.05380 118.44207 35273 ft 422 kts 174°
2026-04-29 12:00 32.99723 118.46239 35271 ft 421 kts 174°
2026-04-29 12:00 32.94115 118.48251 35272 ft 421 kts 174°
2026-04-29 12:01 32.88524 118.50252 35277 ft 423 kts 175°
2026-04-29 12:01 32.82869 118.52273 35272 ft 421 kts 174°
2026-04-29 12:02 32.77275 118.54277 35272 ft 421 kts 175°
2026-04-29 12:02 32.71663 118.56283 35279 ft 421 kts 174°
2026-04-29 12:03 32.66047 118.58276 35284 ft 417 kts 175°
2026-04-29 12:03 32.60464 118.60169 35286 ft 419 kts 175°
2026-04-29 12:04 32.54858 118.62062 35290 ft 417 kts 175°
2026-04-29 12:04 32.49262 118.63960 35290 ft 419 kts 175°
2026-04-29 12:05 32.43651 118.65865 35289 ft 419 kts 176°
2026-04-29 12:05 32.38027 118.67769 35293 ft 420 kts 176°
2026-04-29 12:06 32.32419 118.69666 35291 ft 419 kts 176°
2026-04-29 12:06 32.26812 118.71558 35290 ft 420 kts 176°
2026-04-29 12:07 32.21214 118.73428 35292 ft 420 kts 176°
2026-04-29 12:07 32.15604 118.75310 35292 ft 421 kts 176°
2026-04-29 12:08 32.09939 118.77204 35291 ft 421 kts 176°
2026-04-29 12:08 32.04265 118.79102 35295 ft 422 kts 176°
2026-04-29 12:09 31.98572 118.81003 35296 ft 421 kts 176°
2026-04-29 12:09 31.92960 118.82799 35294 ft 420 kts 176°
2026-04-29 12:10 31.87280 118.84602 35037 ft 421 kts 176°
2026-04-29 12:10 31.84454 118.85503 34762 ft 419 kts 176°
2026-04-29 12:10 31.81680 118.86603 34491 ft 427 kts 170°
2026-04-29 12:11 31.78924 118.88058 34218 ft 433 kts 166°
2026-04-29 12:11 31.76257 118.89732 33945 ft 439 kts 162°
2026-04-29 12:11 31.73647 118.91621 33671 ft 445 kts 158°
2026-04-29 12:11 31.71120 118.93711 33400 ft 451 kts 155°
2026-04-29 12:12 31.68579 118.95969 33121 ft 455 kts 155°
2026-04-29 12:12 31.66078 118.98154 32888 ft 454 kts 154°
2026-04-29 12:12 31.63548 119.00408 32643 ft 453 kts 154°
2026-04-29 12:12 31.61032 119.02659 32406 ft 453 kts 154°
2026-04-29 12:13 31.58547 119.04861 32167 ft 454 kts 154°
2026-04-29 12:13 31.56014 119.07091 31924 ft 452 kts 154°
2026-04-29 12:13 31.53516 119.09287 31676 ft 451 kts 154°
2026-04-29 12:13 31.50986 119.11506 31429 ft 453 kts 154°
2026-04-29 12:14 31.48477 119.13704 31182 ft 452 kts 154°
2026-04-29 12:14 31.45961 119.15904 30939 ft 453 kts 154°
2026-04-29 12:14 31.43414 119.18125 30677 ft 454 kts 154°
2026-04-29 12:14 31.40876 119.20335 30252 ft 455 kts 153°
2026-04-29 12:15 31.38355 119.22530 29618 ft 455 kts 153°
2026-04-29 12:15 31.35838 119.24725 28903 ft 455 kts 152°
2026-04-29 12:15 31.33298 119.26939 28284 ft 451 kts 152°
2026-04-29 12:15 31.30808 119.29115 27729 ft 448 kts 152°
2026-04-29 12:16 31.28320 119.31287 27178 ft 444 kts 152°
2026-04-29 12:16 31.25841 119.33446 26604 ft 442 kts 152°
2026-04-29 12:16 31.23404 119.35566 26027 ft 440 kts 152°
2026-04-29 12:16 31.20940 119.37706 25451 ft 437 kts 152°
2026-04-29 12:17 31.18508 119.39819 24889 ft 435 kts 152°
2026-04-29 12:17 31.16119 119.41902 24303 ft 434 kts 152°
2026-04-29 12:17 31.13652 119.44056 23742 ft 433 kts 151°
2026-04-29 12:17 31.11247 119.46155 23219 ft 431 kts 151°
2026-04-29 12:18 31.08855 119.48243 22685 ft 429 kts 150°
2026-04-29 12:18 31.06480 119.50314 22131 ft 429 kts 150°
2026-04-29 12:18 31.04101 119.52386 21588 ft 428 kts 150°
2026-04-29 12:18 31.01720 119.54459 21031 ft 427 kts 150°
2026-04-29 12:19 30.99348 119.56524 20442 ft 428 kts 149°
2026-04-29 12:19 30.96957 119.58605 19877 ft 427 kts 149°
2026-04-29 12:19 30.94588 119.60667 19292 ft 427 kts 149°
2026-04-29 12:19 30.92203 119.62741 18725 ft 426 kts 148°
2026-04-29 12:20 30.89822 119.64812 18165 ft 424 kts 148°
2026-04-29 12:20 30.87494 119.66839 17627 ft 423 kts 149°
2026-04-29 12:20 30.85140 119.68882 17079 ft 420 kts 148°
2026-04-29 12:20 30.82795 119.70915 16560 ft 417 kts 148°
2026-04-29 12:21 30.80480 119.72923 16022 ft 414 kts 147°
2026-04-29 12:21 30.78162 119.74937 15495 ft 411 kts 148°
2026-04-29 12:21 30.75884 119.76908 14962 ft 408 kts 147°
2026-04-29 12:21 30.73616 119.78870 14438 ft 405 kts 147°
2026-04-29 12:22 30.71375 119.80810 13919 ft 402 kts 146°
2026-04-29 12:22 30.69166 119.82797 13402 ft 400 kts 144°
2026-04-29 12:22 30.67002 119.84783 12898 ft 397 kts 144°
2026-04-29 12:22 30.64802 119.86720 12364 ft 393 kts 147°
2026-04-29 12:23 30.62531 119.88425 11851 ft 388 kts 152°
2026-04-29 12:23 30.60195 119.89942 11340 ft 384 kts 153°
2026-04-29 12:23 30.57838 119.91433 10827 ft 380 kts 153°
2026-04-29 12:23 30.55543 119.92885 10536 ft 370 kts 152°
2026-04-29 12:24 30.53338 119.94284 10340 ft 357 kts 153°
2026-04-29 12:24 30.51194 119.95647 10163 ft 344 kts 153°
2026-04-29 12:24 30.49130 119.96952 10026 ft 332 kts 152°
2026-04-29 12:24 30.47140 119.98212 9834 ft 322 kts 152°
2026-04-29 12:25 30.45189 119.99445 9500 ft 317 kts 152°
2026-04-29 12:25 30.43256 120.00669 9080 ft 307 kts 152°
2026-04-29 12:25 30.39609 120.02972 8318 ft 293 kts 151°
2026-04-29 12:26 30.37823 120.04105 7998 ft 289 kts 151°
2026-04-29 12:26 30.37516 120.04299 7976 ft 288 kts 151°